Stündliche Wetter Warszyce

Heute, 26 Oktober, Montag

Zeit Temperatur Niederschläge Wind Luftdruck Luftfeuchtigkeit
00:00 +10°C° 0 mm 3 m/S 747 mmHg 91%
01:00 +10°C° 0 mm 4 m/S 746 mmHg 92%
02:00 +10°C° 0 mm 3 m/S 746 mmHg 93%
03:00 +10°C° 0 mm 3 m/S 746 mmHg 94%
04:00 +10°C° 0 mm 3 m/S 745 mmHg 95%
05:00 +10°C° 0 mm 3 m/S 745 mmHg 95%
06:00 +10°C° 0 mm 3 m/S 745 mmHg 94%
07:00 +10°C° 0 mm 3 m/S 745 mmHg 94%
08:00 +11°C° 0 mm 3 m/S 745 mmHg 88%
09:00 +13°C° 0 mm 3 m/S 745 mmHg 82%
10:00 +14°C° 0 mm 3 m/S 745 mmHg 76%
11:00 +16°C° 0 mm 3 m/S 745 mmHg 72%
12:00 +17°C° 0 mm 3 m/S 744 mmHg 68%
13:00 +18°C° 0 mm 3 m/S 744 mmHg 64%
14:00 +17°C° 0.1 mm 3 m/S 744 mmHg 67%
15:00 +16°C° 0.1 mm 3 m/S 744 mmHg 71%
16:00 +16°C° 0.1 mm 2 m/S 743 mmHg 74%
17:00 +16°C° 0.1 mm 3 m/S 744 mmHg 74%
18:00 +16°C° 0.1 mm 3 m/S 744 mmHg 74%
19:00 +14°C° 0.1 mm 3 m/S 744 mmHg 75%
20:00 +14°C° 0 mm 3 m/S 744 mmHg 77%
21:00 +13°C° 0 mm 3 m/S 744 mmHg 79%
22:00 +13°C° 0 mm 3 m/S 744 mmHg 81%
23:00 +12°C° 0 mm 3 m/S 744 mmHg 84%

Morgen, 27 Oktober, Dienstag

Zeit Temperatur Niederschläge Wind Luftdruck Luftfeuchtigkeit
00:00 +12°C° 0 mm 3 m/S 744 mmHg 87%
01:00 +11°C° 0 mm 3 m/S 744 mmHg 90%
02:00 +12°C° 0 mm 2 m/S 745 mmHg 90%
03:00 +12°C° 0 mm 2 m/S 745 mmHg 90%
04:00 +12°C° 0 mm 2 m/S 745 mmHg 90%
05:00 +12°C° 0.1 mm 2 m/S 745 mmHg 90%
06:00 +13°C° 0.1 mm 2 m/S 745 mmHg 90%
07:00 +13°C° 0.1 mm 2 m/S 745 mmHg 89%
08:00 +14°C° 0 mm 2 m/S 745 mmHg 84%
09:00 +14°C° 0 mm 3 m/S 745 mmHg 78%
10:00 +15°C° 0 mm 4 m/S 746 mmHg 73%
11:00 +16°C° 0 mm 5 m/S 746 mmHg 68%
12:00 +17°C° 0 mm 5 m/S 746 mmHg 63%
13:00 +19°C° 0 mm 6 m/S 746 mmHg 59%
14:00 +17°C° 0 mm 5 m/S 746 mmHg 62%
15:00 +17°C° 0 mm 4 m/S 746 mmHg 65%
16:00 +17°C° 0 mm 2 m/S 745 mmHg 68%
17:00 +16°C° 0 mm 2 m/S 746 mmHg 72%
18:00 +15°C° 0 mm 2 m/S 746 mmHg 76%
19:00 +14°C° 0 mm 2 m/S 746 mmHg 80%
20:00 +14°C° 0.1 mm 2 m/S 747 mmHg 83%
21:00 +13°C° 0.1 mm 2 m/S 747 mmHg 86%
22:00 +12°C° 0.1 mm 3 m/S 747 mmHg 90%
23:00 +12°C° 0 mm 2 m/S 748 mmHg 91%

übermorgen, 28 Oktober, Mittwoch

Zeit Temperatur Niederschläge Wind Luftdruck Luftfeuchtigkeit
00:00 +10°C° 0 mm 2 m/S 748 mmHg 92%
01:00 +10°C° 0 mm 2 m/S 748 mmHg 93%
02:00 +9°C° 0 mm 2 m/S 748 mmHg 93%
03:00 +9°C° 0 mm 2 m/S 749 mmHg 94%
04:00 +10°C° 0 mm 1 m/S 749 mmHg 94%
05:00 +8°C° 0 mm 2 m/S 749 mmHg 94%
06:00 +8°C° 0 mm 2 m/S 749 mmHg 94%
07:00 +8°C° 0 mm 2 m/S 749 mmHg 94%
08:00 +9°C° 0 mm 2 m/S 750 mmHg 87%
09:00 +12°C° 0 mm 2 m/S 750 mmHg 81%
10:00 +12°C° 0 mm 3 m/S 750 mmHg 74%
11:00 +13°C° 0 mm 3 m/S 750 mmHg 70%
12:00 +14°C° 0 mm 3 m/S 749 mmHg 65%
13:00 +16°C° 0 mm 3 m/S 749 mmHg 61%
14:00 +14°C° 0 mm 3 m/S 749 mmHg 65%
15:00 +14°C° 0 mm 3 m/S 749 mmHg 69%
16:00 +14°C° 0 mm 2 m/S 749 mmHg 72%
17:00 +12°C° 0 mm 3 m/S 749 mmHg 76%
18:00 +12°C° 0 mm 3 m/S 749 mmHg 80%
19:00 +11°C° 0 mm 3 m/S 749 mmHg 84%
20:00 +11°C° 0 mm 3 m/S 749 mmHg 84%
21:00 +11°C° 0 mm 3 m/S 749 mmHg 85%
22:00 +11°C° 0 mm 3 m/S 750 mmHg 85%
23:00 +10°C° 0 mm 3 m/S 750 mmHg 83%

29 Oktober, Donnerstag

Zeit Temperatur Niederschläge Wind Luftdruck Luftfeuchtigkeit
00:00 +10°C° 0 mm 3 m/S 749 mmHg 81%
01:00 +10°C° 0 mm 3 m/S 749 mmHg 78%
02:00 +9°C° 0 mm 3 m/S 749 mmHg 79%
03:00 +9°C° 0 mm 3 m/S 749 mmHg 79%
04:00 +9°C° 0 mm 3 m/S 749 mmHg 80%
05:00 +9°C° 0 mm 3 m/S 750 mmHg 78%
06:00 +8°C° 0 mm 4 m/S 750 mmHg 76%
07:00 +8°C° 0 mm 4 m/S 750 mmHg 75%
08:00 +10°C° 0 mm 5 m/S 750 mmHg 70%
09:00 +11°C° 0 mm 6 m/S 750 mmHg 66%
10:00 +14°C° 0 mm 6 m/S 750 mmHg 62%
11:00 +14°C° 0 mm 6 m/S 750 mmHg 63%
12:00 +14°C° 0 mm 6 m/S 750 mmHg 63%
13:00 +14°C° 0 mm 6 m/S 750 mmHg 64%
14:00 +13°C° 0.1 mm 5 m/S 751 mmHg 66%
15:00 +13°C° 0.1 mm 5 m/S 751 mmHg 68%
16:00 +12°C° 0.1 mm 4 m/S 751 mmHg 69%
17:00 +12°C° 0.1 mm 3 m/S 751 mmHg 71%
18:00 +11°C° 0.1 mm 3 m/S 752 mmHg 74%
19:00 +10°C° 0.1 mm 3 m/S 752 mmHg 76%
20:00 +10°C° 0 mm 3 m/S 753 mmHg 78%
21:00 +9°C° 0 mm 3 m/S 753 mmHg 80%
22:00 +9°C° 0 mm 3 m/S 753 mmHg 82%
23:00 +9°C° 0 mm 3 m/S 753 mmHg 83%

30 Oktober, Freitag

Zeit Temperatur Niederschläge Wind Luftdruck Luftfeuchtigkeit
00:00 +9°C° 0 mm 3 m/S 753 mmHg 83%
01:00 +8°C° 0 mm 3 m/S 753 mmHg 84%
02:00 +7°C° 0 mm 4 m/S 753 mmHg 84%
03:00 +7°C° 0 mm 4 m/S 753 mmHg 85%
04:00 +7°C° 0 mm 4 m/S 753 mmHg 85%
05:00 +8°C° 0 mm 5 m/S 753 mmHg 84%
06:00 +8°C° 0 mm 5 m/S 753 mmHg 84%
07:00 +8°C° 0 mm 5 m/S 753 mmHg 83%
08:00 +9°C° 0 mm 5 m/S 753 mmHg 81%
09:00 +9°C° 0 mm 5 m/S 753 mmHg 78%
10:00 +10°C° 0 mm 6 m/S 753 mmHg 76%
11:00 +12°C° 0 mm 5 m/S 753 mmHg 74%
12:00 +13°C° 0 mm 5 m/S 753 mmHg 73%
13:00 +14°C° 0 mm 5 m/S 753 mmHg 71%
14:00 +13°C° 0 mm 5 m/S 753 mmHg 73%
15:00 +13°C° 0 mm 4 m/S 753 mmHg 75%
16:00 +13°C° 0 mm 4 m/S 753 mmHg 77%
17:00 +12°C° 0 mm 4 m/S 753 mmHg 78%
18:00 +12°C° 0 mm 4 m/S 753 mmHg 79%
19:00 +12°C° 0 mm 4 m/S 754 mmHg 80%
20:00 +12°C° 0 mm 4 m/S 754 mmHg 81%
21:00 +11°C° 0 mm 4 m/S 754 mmHg 82%
22:00 +11°C° 0 mm 4 m/S 754 mmHg 83%
23:00 +11°C° 0 mm 4 m/S 754 mmHg 83%

31 Oktober, Samstag

Zeit Temperatur Niederschläge Wind Luftdruck Luftfeuchtigkeit
00:00 +11°C° 0 mm 3 m/S 754 mmHg 83%
01:00 +10°C° 0 mm 3 m/S 754 mmHg 84%
02:00 +10°C° 0 mm 3 m/S 754 mmHg 83%
03:00 +10°C° 0 mm 3 m/S 754 mmHg 83%
04:00 +9°C° 0 mm 3 m/S 754 mmHg 83%
05:00 +9°C° 0 mm 3 m/S 754 mmHg 83%
06:00 +9°C° 0 mm 3 m/S 754 mmHg 83%
07:00 +9°C° 0 mm 3 m/S 754 mmHg 84%
Mehr zeigen

Wir brauchen deine Erlaubnis

Meteoprog und unser Service Anbieter werden persönliche Daten aufbewahren, so wie Cookies, Geräte Bezeichnung oder ähnliche Technologien von deinem Gerät und Prozess, so wie Persönliche Daten Inhalte und Werbungen, genauso wie social Media und den Verkehr zu analysieren.

  • Aufbewahrung und/oder Zugang zu deiner Geräte Informationen.

    Cookies, Geräte Bezeichnung oder andere Informationen, können aufbewahrt oder Zugang zu deinem Gerät erhalten, für den Grund, der oben angegeben wird.

  • Personalisierte Werbung und Inhalte, Messungen, Einblick in das Publikum und Produkt Entwicklung.

    Werbungen und Inhalte können personalisiert werden, basierend auf ein Profil. Mehr Daten können besser personalisierte Werbungen und Inhalte hinzufügen. Werbung und Inhalte können gezeigt und gemessen werden. Einblicke über das Publikum, welche die Werbung gesehen haben und den Inhalt, können abgeleitet werden. So wie Daten können genutzt werden, um es zu verbessern oder die Benutzer Erfahrung zu verbessern das System und die Software.

Wenn du “Ich stimme zu” klickst, erlaubst du uns, die Cookies zu benutzen die Geräte Bezeichnung, den Web oder ähnliche Technologien zu benutzen. Deine Settings, können in deinem Gerät bei deinem Browser geändert werden.

Für den bestimmten Zweck, berechtigten Interessen beruhen darauf, mehr als auf den Inhalt. Du kannst mehr darüber in unseren Privaten und Cookie Politik lesen.